{"data":{"norad_id":55602,"epoch":"2026-05-24T20:19:45.705792Z","epoch_age_seconds":82208,"freshness":"FRESH","line1":"1 55602U 23020AK  26144.84705678  .00000155  00000+0  15183-4 0  9999","line2":"2 55602  43.0037 284.3715 0001873 276.5637  83.5001 15.27576217180685","mean_motion":15.27576217,"eccentricity":0.0001873,"inclination_deg":43.0037,"raan_deg":284.3715,"arg_perigee_deg":276.5637,"mean_anomaly_deg":83.5001,"bstar":1.5183e-5,"rev_number":18068,"period_min":94.266982162632,"perigee_km":481.77532144849,"apogee_km":484.34552600342,"semimajor_km":6861.197423726,"source":"CELESTRAK","updated_at":"2026-05-25T13:38:17.841676Z"}}